TimeCDT,TemperatureF,Dew PointF,Humidity,Sea Level PressureIn,VisibilityMPH,Wind Direction,Wind SpeedMPH,Gust SpeedMPH,PrecipitationIn,Events,Conditions,WindDirDegrees,DateUTC
12:04 AM,26.6,21.2,80,29.85,10.0,SE,11.5,-,N/A,,Overcast,140,2013-03-18 05:04:00
12:24 AM,26.6,21.2,80,29.83,10.0,SE,15.0,-,N/A,,Overcast,140,2013-03-18 05:24:00
12:45 AM,26.6,21.2,80,29.81,10.0,SE,15.0,21.9,N/A,,Overcast,140,2013-03-18 05:45:00
1:05 AM,26.6,21.2,80,29.78,10.0,SE,17.3,23.0,N/A,,Overcast,140,2013-03-18 06:05:00
1:24 AM,26.6,21.2,80,29.77,10.0,SE,15.0,20.7,N/A,,Overcast,140,2013-03-18 06:24:00
1:45 AM,26.6,21.2,80,29.77,10.0,SSE,16.1,21.9,N/A,,Overcast,150,2013-03-18 06:45:00
2:05 AM,28.4,23.0,80,29.75,10.0,SE,18.4,23.0,N/A,,Overcast,140,2013-03-18 07:05:00
2:24 AM,28.4,23.0,80,29.75,10.0,SSE,17.3,23.0,N/A,,Overcast,150,2013-03-18 07:24:00
2:45 AM,26.6,23.0,86,29.73,10.0,SE,16.1,24.2,N/A,,Overcast,140,2013-03-18 07:45:00
3:05 AM,26.6,21.2,80,29.71,10.0,SE,17.3,24.2,N/A,,Overcast,140,2013-03-18 08:05:00
3:24 AM,26.6,21.2,80,29.71,10.0,SSE,15.0,25.3,N/A,,Overcast,150,2013-03-18 08:24:00
3:45 AM,26.6,21.2,80,29.70,10.0,SSE,16.1,23.0,N/A,,Overcast,150,2013-03-18 08:45:00
4:05 AM,26.6,21.2,80,29.70,10.0,SSE,12.7,18.4,N/A,,Overcast,150,2013-03-18 09:05:00
4:24 AM,26.6,23.0,86,29.70,5.0,SSE,11.5,21.9,N/A,Snow,Light Snow,160,2013-03-18 09:24:00
4:45 AM,26.6,24.8,93,29.69,1.8,SSE,9.2,19.6,N/A,Snow,Light Snow,160,2013-03-18 09:45:00
5:05 AM,26.6,24.8,93,29.68,1.0,SSE,10.4,16.1,N/A,Snow,Snow,160,2013-03-18 10:05:00
5:24 AM,26.6,24.8,93,29.68,0.8,SSE,9.2,-,N/A,Snow,Snow,150,2013-03-18 10:24:00
5:45 AM,26.6,24.8,93,29.67,0.8,SSE,10.4,-,N/A,Snow,Snow,160,2013-03-18 10:45:00
6:04 AM,26.6,24.8,93,29.67,1.2,SSE,10.4,-,N/A,Snow,Snow,160,2013-03-18 11:04:00
6:24 AM,26.6,24.8,93,29.66,1.5,SSE,10.4,-,N/A,Snow,Light Snow,150,2013-03-18 11:24:00
6:44 AM,26.6,24.8,93,29.65,1.2,SSE,9.2,-,N/A,Snow,Snow,150,2013-03-18 11:44:00
7:04 AM,26.6,24.8,93,29.64,1.2,SSE,10.4,16.1,N/A,Snow,Snow,160,2013-03-18 12:04:00
7:24 AM,26.6,24.8,93,29.63,0.8,SSE,10.4,-,N/A,Snow,Snow,160,2013-03-18 12:24:00
7:44 AM,26.6,24.8,93,29.63,1.0,SSE,9.2,-,N/A,Snow,Light Snow,160,2013-03-18 12:44:00
8:05 AM,26.6,26.6,100,29.61,1.8,SSE,9.2,-,N/A,Snow,Light Snow,160,2013-03-18 13:05:00
8:24 AM,26.6,26.6,100,29.61,1.0,South,9.2,-,N/A,Snow,Light Snow,170,2013-03-18 13:24:00
8:44 AM,28.4,26.6,93,29.61,1.0,South,10.4,-,N/A,,Overcast,170,2013-03-18 13:44:00
9:05 AM,28.4,26.6,93,29.60,1.0,South,11.5,-,N/A,,Overcast,180,2013-03-18 14:05:00
9:24 AM,28.4,26.6,93,29.59,1.8,South,9.2,-,N/A,Snow,Light Snow,180,2013-03-18 14:24:00
9:44 AM,28.4,26.6,93,29.60,2.5,WNW,24.2,-,N/A,Snow,Light Snow,290,2013-03-18 14:44:00
10:05 AM,24.8,21.2,86,29.61,2.5,West,23.0,27.6,N/A,Snow,Light Snow,270,2013-03-18 15:05:00
10:24 AM,21.2,19.4,93,29.63,4.0,West,17.3,23.0,N/A,,Overcast,280,2013-03-18 15:24:00
10:44 AM,21.2,17.6,86,29.63,4.0,West,20.7,26.5,N/A,,Overcast,270,2013-03-18 15:44:00
11:05 AM,19.4,15.8,86,29.63,4.0,West,25.3,29.9,N/A,,Haze,280,2013-03-18 16:05:00
11:24 AM,19.4,14.0,80,29.64,5.0,West,20.7,27.6,N/A,,Haze,280,2013-03-18 16:24:00
11:45 AM,19.4,12.2,74,29.64,5.0,West,24.2,29.9,N/A,,Haze,280,2013-03-18 16:45:00
12:05 PM,19.4,12.2,74,29.65,3.0,West,23.0,28.8,N/A,,Haze,270,2013-03-18 17:05:00
12:24 PM,17.6,12.2,79,29.65,2.5,West,25.3,32.2,N/A,Snow,Light Snow,270,2013-03-18 17:24:00
12:45 PM,17.6,10.4,73,29.65,2.5,West,19.6,34.5,N/A,Snow,Light Snow,270,2013-03-18 17:45:00
1:05 PM,17.6,10.4,73,29.64,2.5,West,24.2,35.7,N/A,Snow,Light Snow,270,2013-03-18 18:05:00
1:24 PM,19.4,10.4,68,29.64,1.8,West,20.7,32.2,N/A,Snow,Light Snow,270,2013-03-18 18:24:00
1:44 PM,17.6,12.2,79,29.65,1.5,West,25.3,34.5,N/A,Snow,Light Snow,280,2013-03-18 18:44:00
2:05 PM,17.6,10.4,73,29.65,2.0,West,25.3,31.1,N/A,Snow,Light Snow,280,2013-03-18 19:05:00
2:24 PM,15.8,10.4,79,29.66,1.5,West,20.7,33.4,N/A,Snow,Light Snow,270,2013-03-18 19:24:00
2:44 PM,15.8,10.4,79,29.66,2.0,West,23.0,28.8,N/A,Snow,Light Snow,270,2013-03-18 19:44:00
3:05 PM,15.8,8.6,73,29.66,2.5,West,20.7,34.5,N/A,Snow,Light Snow,270,2013-03-18 20:05:00
3:24 PM,15.8,10.4,79,29.66,3.0,West,23.0,27.6,N/A,Snow,Light Snow,270,2013-03-18 20:24:00
3:44 PM,15.8,8.6,73,29.66,1.8,West,27.6,34.5,N/A,Snow,Light Snow,280,2013-03-18 20:44:00
4:05 PM,15.8,8.6,73,29.66,1.8,West,29.9,35.7,N/A,,Haze,270,2013-03-18 21:05:00
4:24 PM,17.6,10.4,73,29.67,2.0,West,23.0,33.4,N/A,Snow,Light Snow,270,2013-03-18 21:24:00
4:44 PM,15.8,10.4,79,29.67,2.0,West,27.6,35.7,N/A,Snow,Light Snow,280,2013-03-18 21:44:00
5:04 PM,15.8,10.4,79,29.68,1.8,West,25.3,33.4,N/A,Snow,Light Snow,270,2013-03-18 22:04:00
5:24 PM,15.8,8.6,73,29.69,2.5,West,23.0,35.7,N/A,,Haze,280,2013-03-18 22:24:00
5:44 PM,14.0,8.6,79,29.69,2.0,West,28.8,34.5,N/A,Snow,Light Snow,270,2013-03-18 22:44:00
6:04 PM,14.0,8.6,79,29.70,2.5,West,24.2,34.5,N/A,Snow,Light Snow,270,2013-03-18 23:04:00
6:25 PM,14.0,8.6,79,29.70,3.0,West,21.9,31.1,N/A,Snow,Light Snow,270,2013-03-18 23:25:00
6:45 PM,14.0,8.6,79,29.71,2.0,West,21.9,33.4,N/A,Snow,Light Snow,270,2013-03-18 23:45:00
7:04 PM,12.2,8.6,85,29.72,1.8,West,24.2,31.1,N/A,Snow,Light Snow,270,2013-03-19 00:04:00
7:25 PM,12.2,8.6,85,29.72,2.0,West,29.9,-,N/A,Snow,Light Snow,280,2013-03-19 00:25:00
7:44 PM,12.2,8.6,85,29.73,4.0,West,23.0,32.2,N/A,,Overcast,270,2013-03-19 00:44:00
8:05 PM,12.2,8.6,85,29.74,3.0,West,21.9,27.6,N/A,Snow,Light Snow,270,2013-03-19 01:05:00
8:24 PM,12.2,8.6,85,29.74,4.0,West,21.9,29.9,N/A,Snow,Light Snow,280,2013-03-19 01:24:00
8:45 PM,12.2,8.6,85,29.75,3.0,West,26.5,33.4,N/A,Snow,Light Snow,280,2013-03-19 01:45:00
9:05 PM,10.4,6.8,85,29.77,3.0,West,23.0,29.9,N/A,Snow,Light Snow,280,2013-03-19 02:05:00
9:24 PM,10.4,6.8,85,29.77,3.0,West,23.0,31.1,N/A,Snow,Light Snow,280,2013-03-19 02:24:00
9:45 PM,10.4,6.8,85,29.77,3.0,West,23.0,28.8,N/A,Snow,Light Snow,270,2013-03-19 02:45:00
10:04 PM,10.4,6.8,85,29.78,3.0,West,23.0,34.5,N/A,Snow,Light Snow,280,2013-03-19 03:04:00
10:45 PM,10.4,6.8,85,29.79,5.0,West,25.3,28.8,N/A,,Overcast,280,2013-03-19 03:45:00
11:04 PM,10.4,5.0,79,29.80,7.0,West,24.2,33.4,N/A,,Mostly Cloudy,280,2013-03-19 04:04:00
11:24 PM,10.4,5.0,79,29.81,7.0,West,19.6,32.2,N/A,,Mostly Cloudy,280,2013-03-19 04:24:00
11:45 PM,10.4,5.0,79,29.81,7.0,West,19.6,28.8,N/A,,Overcast,280,2013-03-19 04:45:00